Skip Navigation Links weather.gov 
NOAA logo-Select to go to the NOAA homepage NDBC Title GraphicClick to go to NDBC home page   Select to go to the NWS homepage
Home About Us Contact Us
 
 
    
    Station List

 Data Access
    Mobile Access
    Classic Maps
         Recent
         DART®
    Obs Search
    Ship Obs Report
    BuoyCAMs
    TAO
    DODS
    OceanSITES
    HF Radar
    OSMC
    Dial-A-Buoy
    RSS Feeds Image indicating link to RSS feed access page
    Web Widget
    Email Access
    Web Data Guide
    Maintenance Schedule
    Station Status Report

 Program Info
    TAO
    DART®
    IOOS®

 Publications
    NDBC PEA
    NDBC FONSI
    NDBC DQC Handbook

 FAQ
 Visitor Information
 
USA.gov is the U.S. government's official web portal to all federal, state and local government web resources and services.

Station NKLA2 - Nikolski White Alice Image indicating link to RSS feed of recent meteorological observations for station NKLA2

Owned and maintained by Marine Exchange of Alaska
Fixed Structure Weather Station
52.972 N 168.855 W (52°58'20" N 168°51'19" W)

Search And Rescue (SAR) Data

Meteorological Observations from Nearby Stations and Ships Image indicating link to RSS feed of recent meteorological observations near station NKLA2

Large icon indicates selected station.
yellow diamond Stations with recent data
red diamond Stations with no data in last 8 hours
     (24 hours for tsunami stations)


Conditions at NKLA2 as of
(2:12 am AKST)
1112 GMT on 02/20/2019:
     

Click on the graph icon in the table below to see a time series plot of the last five days of that observation.

5-day plot - Wind Direction Wind Direction (WDIR): S ( 190 deg true )
5-day plot - Wind Speed Wind Speed (WSPD): 13.0 kts
5-day plot - Wind Gust Wind Gust (GST): 34.0 kts
5-day plot - Atmospheric Pressure Atmospheric Pressure (PRES): 29.75 in
5-day plot - Air Temperature Air Temperature (ATMP): 33.3 °F
5-day plot - Dew Point Dew Point (DEWP): 28.9 °F
5-day plot - Wind Chill Wind Chill (CHILL): 23.2 °F
5-day plot - Wind Speed at 10 Meters Wind Speed at 10 meters (WSPD10M): 13.6 kts
5-day plot - Wind Speed at 10 Meters Wind Speed at 20 meters (WSPD20M): 15.5 kts
5-day plot - Wind Speed, Wind Gust and Atmospheric Pressure Combined plot of Wind Speed, Gust, and Air Pressure
Previous observations
5-day plot - Wind Direction 5-day plot - Wind Speed 5-day plot - Wind Gust 5-day plot - Wave Height 5-day plot - Dominant Wave Period 5-day plot - Average Period 5-day plot - Mean Wave Direction 5-day plot - Atmospheric Pressure 5-day plot - Pressure Tendency 5-day plot - Air Temperature 5-day plot - Water Temperature 5-day plot - Dew Point 5-day plot - Salinity 5-day plot - Visibility 5-day plot - Tide (above MLLW)
MM DD TIME
(AKST)
WDIR WSPD
kts
GST
kts
WVHT
ft
DPD
sec
APD
sec
MWD PRES
in
PTDY
in
ATMP
°F
WTMP
°F
DEWP
°F
SAL
psu
VIS
nmi
TIDE
ft
0220 2:02 am SE 8.0 20.0----29.75- 33.1- 29.1---
0220 1:52 am S 8.9 25.1----29.75- 32.7- 28.9---
0220 1:42 am S 11.1 44.1----29.75- 32.4- 28.8---
0220 1:32 am SE 8.9 24.1----29.75- 32.5- 28.8---
0220 1:22 am SE 9.9 26.0----29.75- 32.4- 28.8---
0220 1:12 amSSE 9.9 42.0----29.75- 32.2- 28.2---
0220 1:02 am SE 9.9 26.0----29.74- 32.4- 28.2---
022012:52 amSSE 11.1 42.9----29.74- 32.4- 28.2---
022012:42 amSSE 9.9 28.0----29.75- 32.7- 28.6---
022012:32 am SE 8.0 20.0----29.75- 32.7- 28.9---
022012:22 amESE 8.0 17.1----29.76- 32.5- 28.9---
022012:12 am E 8.0 21.0----29.75- 32.7- 28.8---
022012:02 amESE 9.9 22.0----29.75- 33.1- 28.9---
021911:52 pmESE 8.9 29.9----29.75- 32.9- 28.9---
021911:42 pmESE 8.9 18.1----29.75- 32.9- 29.1---
021911:32 pm SE 8.9 20.0----29.75- 32.7- 29.1---
021911:22 pmSSE 8.9 22.9----29.75- 32.5- 28.9---
021911:12 pmESE 8.9 18.1----29.74- 32.4- 28.8---
021911:02 pm SE 11.1 32.1----29.72- 32.5- 28.6---
021910:52 pm SE 11.1 27.0----29.72- 32.5- 28.8---
021910:42 pm SE 12.0 31.1----29.72- 32.5- 28.8---
021910:32 pm SE 9.9 26.0----29.71- 32.5- 28.9---
021910:22 pm SE 13.0 32.1----29.71- 32.2- 28.9---
021910:12 pm SE 11.1 28.0----29.71- 32.0- 28.8---
021910:02 pmESE 11.1 25.1----29.69- 32.0- 28.4---
0219 9:52 pmSSE 13.0 28.0----29.70- 32.9- 28.8---
0219 9:42 pmESE 8.9 31.1----29.72- 33.3- 28.8---
0219 9:32 pmESE 11.1 40.0----29.72- 33.4- 28.6---
0219 9:22 pmESE 9.9 32.1----29.72- 33.4- 28.9---
0219 9:12 pm SE 8.9 26.0----29.72- 33.8- 29.3---
0219 9:03 pmESE 8.9 19.0----29.72- 33.6- 28.9---
0219 8:52 pm SE 8.9 29.9----29.70- 33.4- 28.8---
0219 8:42 pmSSW 11.1 41.0----29.70- 33.1- 29.3---
0219 8:32 pmSSE 9.9 35.0----29.70- 32.7- 29.5---
0219 8:22 pmSSE 13.0 42.0----29.67- 33.3- 28.8---
0219 8:12 pm E 9.9 20.0----29.69- 33.8- 28.9---
0219 8:02 pmESE 12.0 28.9----29.67- 34.0- 29.3---
0219 7:52 pmESE 12.0 27.0----29.66- 34.2- 29.5---
0219 7:42 pm E 9.9 29.9----29.67- 34.3- 29.1---
0219 7:32 pm SW 19.0-----29.64- 34.3- 28.9---
0219 7:22 pm S 15.0-----29.65- 34.3- 29.1---
0219 7:12 pm E 9.9 20.0----29.65- 34.5- 29.1---
0219 7:02 pm E 12.0 27.0----29.63- 34.5- 29.3---
0219 6:52 pmESE 13.0 25.1----29.62- 34.7- 29.5---
0219 6:42 pmSSW 17.1-----29.60- 34.9- 29.3---
0219 6:32 pm E 12.0 22.9----29.62- 34.9- 29.5---
0219 6:22 pmESE 15.0 34.0----29.59- 35.1- 29.5---
0219 6:12 pm E 14.0 39.0----29.59- 35.1- 29.1---
0219 6:02 pm E 15.0 28.0----29.57- 35.1- 29.3---
0219 5:52 pm E 15.0 29.9----29.56- 35.1- 29.5---
0219 5:42 pmESE 13.0 29.9----29.56- 35.2- 29.5---
0219 5:32 pm E 14.0 26.0----29.56- 35.2- 29.8---
0219 5:22 pm E 12.0 26.0----29.56- 35.2- 30.0---
0219 5:12 pm E 13.0 33.0----29.56- 35.2- 30.0---
0219 5:02 pm E 14.0-----29.54- 35.2- 30.0---
0219 4:52 pm E 14.0-----29.54- 35.6- 30.2---
0219 4:42 pm E 14.0-----29.53- 35.4- 30.2---
0219 4:32 pm E 13.0-----29.53- 35.6- 30.4---
0219 4:22 pm E 12.0-----29.53- 35.6- 30.4---
0219 4:12 pm SE 12.0-----29.52- 35.6- 30.6---
0219 4:02 pm SW 24.1 74.0----29.52- 36.0- 30.4---
0219 3:52 pm S 15.0 59.1----29.51- 36.1- 30.7---
0219 3:42 pm SW 26.0 67.0----29.50- 36.3- 30.9---
0219 3:32 pmESE 13.0 35.0----29.50- 36.3- 31.5---
0219 3:22 pm S 15.9 65.1----29.49- 35.8- 31.3---
0219 3:12 pm S 15.0 60.0----29.49- 36.0- 31.6---
0219 2:52 pmESE 13.0-----29.45- 36.0- 32.4---
0219 2:42 pm S 17.1 78.1----29.44- 35.8- 32.5---
0219 2:32 pm SE 14.0 62.0----29.45- 35.6- 32.5---
0219 2:22 pmSSW 25.1 73.0----29.41- 35.2- 32.0---
0219 2:12 pmSSW 27.0 58.1----29.41- 35.1- 31.8---
0219 2:02 pmSSW 35.9 72.1----29.39- 35.1- 31.8---
0219 1:52 pmSSW 34.0 74.0----29.38- 35.1- 31.6---
0219 1:42 pmSSW 35.9 69.9----29.39- 35.1- 31.6---
0219 1:32 pmSSW 35.9 69.9----29.39- 35.1- 31.8---
0219 1:22 pmSSW 39.0 68.0----29.37- 35.2- 31.8---
0219 1:12 pmSSW 39.0 69.9----29.39- 35.2- 32.0---
0219 1:02 pmSSW 34.0 63.9----29.39- 35.4- 32.0---
021912:52 pmSSW 38.1 69.0----29.39- 35.4- 32.0---
021912:42 pmSSW 41.0 75.0----29.39- 35.4- 32.0---
021912:32 pmSSW 36.9 71.1----29.38- 35.4- 32.4---
021912:22 pmSSW 38.1 67.0----29.38- 35.6- 32.5---
021912:12 pmSSW 35.9 67.0----29.38- 35.6- 32.7---
021912:02 pmSSW 34.0 60.0----29.37- 35.8- 33.3---
021911:52 amSSW 31.1 61.0----29.37- 35.8- 33.4---
021911:42 amSSW 29.9 55.9----29.37- 36.1- 33.8---
021911:32 amSSW 29.9 65.1----29.39- 36.5- 34.3---
021911:22 amSSW 28.0 54.0----29.38- 37.0- 34.7---
021911:12 amSSW 34.0 59.1----29.41- 37.4- 35.2---
021911:02 amSSW 39.0 61.0----29.42- 37.8- 35.6---
021910:52 amSSW 47.0 61.0----29.45- 37.9- 35.8---
021910:42 amSSW 48.0 67.0----29.46- 38.1- 36.0---
021910:32 am S 45.1 62.9----29.46- 38.1- 36.1---
021910:22 am S 42.9 58.1----29.47- 38.1- 36.0---
021910:12 am S 46.0 67.0----29.47- 38.1- 36.1---
021910:02 amSSE 46.0 67.0----29.47- 37.8- 35.8---
0219 9:52 amSSE 47.0 65.1----29.46- 37.2- 35.2---
0219 9:42 am SE 47.0 65.1----29.42- 36.1- 34.3---
0219 9:32 am SE 34.0 55.0----29.42- 35.2- 33.4---
0219 9:22 amESE 33.0 44.1----29.40- 33.8- 32.2---
0219 9:12 am E 35.9 49.9----29.36- 32.9- 31.3---
0219 9:02 am E------29.35- 31.8- 30.0---
0219 8:52 am E------29.34- 31.1- 29.3---
0219 8:42 am E------29.36- 30.6- 28.8---
0219 8:32 am E------29.36- 30.2- 28.4---
0219 8:22 am E------29.39- 30.0- 28.0---
0219 8:12 amESE------29.41- 30.0- 28.0---
0219 8:02 am E 15.0 52.1----29.41- 29.7- 27.7---
0219 7:52 am E 15.0 29.9----29.41- 29.5- 27.5---
0219 4:32 amWSW------29.72- 28.4- 26.2---
0219 4:22 am SE------29.75- 28.4- 26.2---
0219 4:12 am SE------29.77- 28.4- 26.2---
0219 3:02 amESE 39.0 44.1----29.88- 28.4- 25.9---
0219 2:52 amESE 26.0 47.0----29.88- 28.4- 25.9---
0219 2:42 amESE 31.1 46.0----29.88- 28.4- 25.7---
0219 2:32 amESE 29.9 44.1----29.90- 28.4- 25.5---
0219 2:22 am E 35.0 47.0----29.91- 29.3- 25.9---
0219 2:12 amESE 28.9 42.0----29.94- 30.2- 26.1---
0219 2:02 amESE 29.9 46.0----29.94- 30.6- 25.2---
0219 1:52 am E 34.0 44.1----29.96- 31.8- 24.1---

Description of Measurements

Links which are specific to this station are listed below:

Real Time Data in tabular form for the last forty-five days.

Historical Data & Climatic Summaries for quality controlled data for the current month, previous months, and previous years.